TimeCDT,TemperatureF,Dew PointF,Humidity,Sea Level PressureIn,VisibilityMPH,Wind Direction,Wind SpeedMPH,Gust SpeedMPH,PrecipitationIn,Events,Conditions,WindDirDegrees,DateUTC
12:15 AM,68.0,63.0,84,29.90,10.0,South,3.5,-,N/A,,Mostly Cloudy,180,2013-09-15 05:15:00
12:35 AM,67.5,62.8,85,29.90,10.0,SSE,3.5,-,N/A,,Scattered Clouds,150,2013-09-15 05:35:00
12:55 AM,68.9,64.4,86,29.90,10.0,WSW,4.6,-,N/A,Rain,Light Rain,240,2013-09-15 05:55:00
1:15 AM,68.4,63.5,84,29.89,10.0,West,6.9,-,N/A,Rain,Light Rain,280,2013-09-15 06:15:00
1:35 AM,66.7,63.5,89,29.90,10.0,Calm,Calm,-,0.01,Rain,Rain,0,2013-09-15 06:35:00
1:55 AM,66.2,63.5,91,29.91,5.0,SW,3.5,-,0.06,Rain,Rain,230,2013-09-15 06:55:00
2:15 AM,64.6,62.6,93,29.93,10.0,WSW,8.1,-,0.03,Rain,Rain,240,2013-09-15 07:15:00
2:35 AM,64.9,63.0,93,29.93,10.0,SW,8.1,-,0.04,Rain,Light Rain,220,2013-09-15 07:35:00
2:55 AM,65.7,61.9,88,29.92,10.0,South,8.1,-,0.07,Rain-Thunderstorm,Light Thunderstorms and Rain,180,2013-09-15 07:55:00
3:15 AM,65.3,61.7,88,29.91,10.0,South,12.7,-,0.01,Rain-Thunderstorm,Light Thunderstorms and Rain,180,2013-09-15 08:15:00
3:35 AM,64.8,61.7,90,29.91,10.0,South,5.8,-,0.01,Rain,Light Rain,180,2013-09-15 08:35:00
3:55 AM,65.3,61.3,87,29.93,10.0,NW,4.6,-,0.01,Rain,Light Rain,310,2013-09-15 08:55:00
4:15 AM,65.3,61.9,89,29.95,10.0,North,11.5,16.1,0.01,Rain,Light Rain,360,2013-09-15 09:15:00
4:35 AM,65.1,62.8,92,29.96,10.0,North,8.1,-,0.01,Rain,Light Rain,350,2013-09-15 09:35:00
4:55 AM,64.8,62.6,93,29.96,10.0,NNW,4.6,-,0.01,,Scattered Clouds,330,2013-09-15 09:55:00
5:15 AM,64.9,62.6,92,29.95,10.0,North,5.8,-,N/A,,Clear,360,2013-09-15 10:15:00
5:35 AM,64.9,62.2,91,29.95,10.0,NNE,5.8,-,N/A,,Scattered Clouds,30,2013-09-15 10:35:00
5:55 AM,64.4,62.2,93,29.95,10.0,NNW,3.5,-,N/A,,Mostly Cloudy,340,2013-09-15 10:55:00
6:15 AM,64.2,62.1,93,29.96,10.0,NNE,6.9,-,N/A,,Scattered Clouds,30,2013-09-15 11:15:00
6:35 AM,64.4,61.7,91,29.97,10.0,NNE,9.2,-,N/A,,Clear,20,2013-09-15 11:35:00
6:55 AM,64.6,62.8,94,29.97,10.0,NNE,17.3,-,N/A,,Clear,20,2013-09-15 11:55:00
7:15 AM,64.4,62.2,93,29.99,10.0,NNE,19.6,23.0,N/A,,Scattered Clouds,30,2013-09-15 12:15:00
7:35 AM,63.7,61.7,93,30.00,10.0,NNE,16.1,-,N/A,,Mostly Cloudy,30,2013-09-15 12:35:00
7:55 AM,63.1,60.4,91,30.02,10.0,NNE,17.3,24.2,N/A,,Mostly Cloudy,30,2013-09-15 12:55:00
8:15 AM,62.8,59.9,90,30.03,10.0,NE,17.3,27.6,N/A,,Mostly Cloudy,40,2013-09-15 13:15:00
8:35 AM,61.3,58.1,89,30.05,10.0,NNE,18.4,27.6,N/A,,Mostly Cloudy,30,2013-09-15 13:35:00
8:55 AM,61.0,57.9,90,30.06,10.0,NNE,16.1,24.2,N/A,,Overcast,30,2013-09-15 13:55:00
9:15 AM,60.8,58.1,91,30.06,10.0,NE,13.8,21.9,N/A,,Overcast,40,2013-09-15 14:15:00
9:35 AM,60.4,56.7,87,30.08,10.0,NNE,16.1,24.2,N/A,,Overcast,30,2013-09-15 14:35:00
9:55 AM,60.4,56.7,87,30.09,10.0,NNE,18.4,-,N/A,,Overcast,20,2013-09-15 14:55:00
10:15 AM,60.1,56.3,87,30.11,10.0,NNE,17.3,23.0,N/A,,Overcast,30,2013-09-15 15:15:00
10:35 AM,60.4,56.3,86,30.11,10.0,NNE,18.4,25.3,N/A,,Overcast,30,2013-09-15 15:35:00
10:55 AM,60.8,56.5,86,30.12,10.0,NNE,17.3,-,N/A,,Overcast,20,2013-09-15 15:55:00
11:15 AM,60.4,55.9,85,30.13,10.0,NE,18.4,25.3,N/A,,Overcast,40,2013-09-15 16:15:00
11:35 AM,60.4,55.6,84,30.14,10.0,NNE,11.5,23.0,N/A,,Overcast,30,2013-09-15 16:35:00
11:55 AM,60.4,55.6,84,30.15,10.0,NNE,16.1,23.0,N/A,,Overcast,30,2013-09-15 16:55:00
12:15 PM,60.4,55.4,83,30.15,10.0,NE,16.1,23.0,N/A,,Overcast,40,2013-09-15 17:15:00
12:35 PM,60.8,55.6,83,30.15,10.0,NNE,16.1,23.0,N/A,,Overcast,30,2013-09-15 17:35:00
12:55 PM,60.8,55.4,82,30.16,10.0,NE,18.4,25.3,N/A,,Overcast,40,2013-09-15 17:55:00
1:15 PM,61.3,55.8,82,30.16,10.0,NE,11.5,19.6,N/A,,Overcast,40,2013-09-15 18:15:00
1:35 PM,61.9,55.6,80,30.17,10.0,NE,15.0,20.7,N/A,,Overcast,40,2013-09-15 18:35:00
1:55 PM,62.2,55.8,79,30.16,10.0,NNE,16.1,-,N/A,,Overcast,30,2013-09-15 18:55:00
2:15 PM,62.8,56.1,79,30.17,10.0,NNE,13.8,19.6,N/A,,Overcast,20,2013-09-15 19:15:00
2:35 PM,62.2,55.8,79,30.18,10.0,NE,15.0,21.9,N/A,,Overcast,40,2013-09-15 19:35:00
2:55 PM,63.1,55.8,77,30.17,10.0,NE,16.1,19.6,N/A,,Overcast,40,2013-09-15 19:55:00
3:15 PM,64.2,56.1,75,30.17,10.0,NNE,16.1,-,N/A,,Overcast,30,2013-09-15 20:15:00
3:35 PM,64.4,55.6,73,30.18,10.0,NE,15.0,20.7,N/A,,Overcast,40,2013-09-15 20:35:00
3:55 PM,64.8,55.4,72,30.18,10.0,NNE,12.7,-,N/A,,Overcast,30,2013-09-15 20:55:00
4:15 PM,65.5,55.6,70,30.18,10.0,NE,10.4,-,N/A,,Mostly Cloudy,50,2013-09-15 21:15:00
4:35 PM,66.2,56.1,70,30.18,10.0,ENE,5.8,-,N/A,,Overcast,60,2013-09-15 21:35:00
4:55 PM,67.1,55.8,67,30.18,7.0,NE,8.1,-,N/A,,Overcast,40,2013-09-15 21:55:00
5:15 PM,67.1,55.9,67,30.18,10.0,NNE,10.4,-,N/A,,Mostly Cloudy,30,2013-09-15 22:15:00
5:35 PM,67.5,55.0,64,30.18,10.0,NE,10.4,18.4,N/A,,Scattered Clouds,40,2013-09-15 22:35:00
5:55 PM,67.5,54.9,64,30.18,10.0,NE,11.5,-,N/A,,Clear,40,2013-09-15 22:55:00
6:15 PM,67.3,55.9,67,30.18,10.0,NE,9.2,-,N/A,,Scattered Clouds,50,2013-09-15 23:15:00
6:35 PM,66.6,56.3,69,30.19,10.0,NE,5.8,-,N/A,,Scattered Clouds,40,2013-09-15 23:35:00
6:55 PM,66.2,55.4,68,30.20,10.0,NE,8.1,-,N/A,,Overcast,50,2013-09-15 23:55:00
7:15 PM,65.7,55.2,69,30.20,10.0,NE,6.9,-,N/A,,Overcast,50,2013-09-16 00:15:00
7:35 PM,64.6,56.3,74,30.20,10.0,NE,3.5,-,N/A,,Overcast,40,2013-09-16 00:35:00
7:55 PM,64.8,56.3,74,30.20,10.0,NE,4.6,-,N/A,,Overcast,50,2013-09-16 00:55:00
8:15 PM,64.4,56.3,75,30.21,10.0,NE,5.8,-,N/A,,Overcast,40,2013-09-16 01:15:00
8:35 PM,64.4,56.5,75,30.22,10.0,NE,5.8,-,N/A,,Overcast,50,2013-09-16 01:35:00
8:55 PM,63.9,56.8,78,30.23,10.0,NE,5.8,-,N/A,,Overcast,50,2013-09-16 01:55:00
9:15 PM,63.7,56.7,78,30.24,10.0,NE,5.8,-,N/A,,Overcast,40,2013-09-16 02:15:00
9:35 PM,63.5,55.0,74,30.25,10.0,NE,11.5,21.9,N/A,,Overcast,50,2013-09-16 02:35:00
9:55 PM,63.0,54.9,75,30.26,10.0,NE,11.5,-,N/A,,Overcast,50,2013-09-16 02:55:00
10:15 PM,62.1,54.3,76,30.26,10.0,NE,11.5,-,N/A,,Overcast,50,2013-09-16 03:15:00
10:35 PM,61.7,54.3,77,30.27,10.0,NE,9.2,16.1,N/A,,Overcast,50,2013-09-16 03:35:00
10:55 PM,61.0,54.0,78,30.27,10.0,ENE,9.2,16.1,N/A,,Overcast,60,2013-09-16 03:55:00
11:15 PM,60.3,53.8,79,30.27,10.0,NE,9.2,-,N/A,,Overcast,50,2013-09-16 04:15:00
11:35 PM,59.9,53.8,80,30.27,10.0,ENE,8.1,-,N/A,,Overcast,60,2013-09-16 04:35:00
11:55 PM,59.4,53.8,82,30.27,10.0,ENE,10.4,-,N/A,,Mostly Cloudy,60,2013-09-16 04:55:00